Regional Weather Roundup
Issued by NWS

Home | Current Version | Previous Version | Graphics & Text | Print | Product List | Glossary Off
Versions: 1 2 3 4 5 6 7 8 9 10 11 12 13 14 15 16 17 18 19 20 21 22 23 24 25 26 27 28 29 30 31 32 33 34 35 36 37 38 39 40 41 42 43 44 45 46 47 48 49 50

000
ASUS43 KMKX 271211
RWRWI

WISCONSIN REGIONAL WEATHER ROUNDUP
NATIONAL WEATHER SERVICE MILWAUKEE/SULLIVAN WI
700 AM CDT THU AUG 27 2015

NOTE: "FAIR" INDICATES FEW OR NO CLOUDS BELOW 12,000 FEET WITH NO
SIGNIFICANT WEATHER AND/OR OBSTRUCTIONS TO VISIBILITY.

WIZ001-002-006>008-014>016-023>028-271300-
NORTHWEST WISCONSIN

CITY           SKY/WX    TMP DP  RH WIND       PRES   REMARKS
SUPERIOR ARPT  CLEAR     41  41 100 CALM      30.12F FOG
6HR MIN TEMP:  40; 6HR MAX TEMP:  49;

ASHLAND        CLEAR     40  40 100 CALM      30.15S
6HR MIN TEMP:  38; 6HR MAX TEMP:  44;

HAYWARD        CLEAR     43  42  97 N6        30.14F
6HR MIN TEMP:  41; 6HR MAX TEMP:  47;

SIREN          CLEAR     52  51  95 CALM      30.12S
6HR MIN TEMP:  48; 6HR MAX TEMP:  52;

CUMBERLAND     CLEAR     46  46 100 CALM      30.13F FOG
RICE LAKE      FOG       46  45  97 CALM      30.15S VSB 3/4
6HR MIN TEMP:  45; 6HR MAX TEMP:  50; 6HR PCP:  0.01;

CHETEK         CLEAR     48  48  99 S3        30.14S
6HR MIN TEMP:  47; 6HR MAX TEMP:  52;

LADYSMITH      CLEAR     46  44  95 E3        30.16F
6HR MIN TEMP:  44; 6HR MAX TEMP:  49;

EAU CLAIRE     CLEAR     50  49  96 CALM      30.14R FOG
6HR MIN TEMP:  47; 6HR MAX TEMP:  52;

MENOMONIE      FOG       51  51  99 CALM      30.14R VSB 1
NEW RICHMOND   MOCLDY    53  52  95 CALM      30.15R
6HR MIN TEMP:  49; 6HR MAX TEMP:  53;

OSCEOLA        MOCLDY    54  54 100 CALM      30.16R
6HR MIN TEMP:  50; 6HR MAX TEMP:  55;

$$

WIZ003>005-009-010-017-018-271300-
NORTH CENTRAL WISCONSIN

CITY           SKY/WX    TMP DP  RH WIND       PRES   REMARKS
MANITOWISH WTR FOG       35  35 100 CALM      30.18R VSB 1/2
6HR MIN TEMP:  35; 6HR MAX TEMP:  38;

ARBOR VITAE    CLEAR     40  39  95 CALM      30.18R
6HR MIN TEMP:  39; 6HR MAX TEMP:  44;

WOODRUFF       CLEAR     40  39  95 CALM      30.18R
6HR MIN TEMP:  39; 6HR MAX TEMP:  44;

RHINELANDER    MOCLDY    43  42  97 CALM      30.19R FOG
6HR MIN TEMP:  39; 6HR MAX TEMP:  45;

EAGLE RIVER    FOG       40  40 100 CALM      30.18S VSB<1/4
6HR MIN TEMP:  36; 6HR MAX TEMP:  42;

LAND O LAKES   FOG       37  37 100 CALM      30.19F VSB 1/4
6HR MIN TEMP:  33; 6HR MAX TEMP:  38;

PHILLIPS       CLEAR     41  41 100 CALM      30.17S
6HR MIN TEMP:  40; 6HR MAX TEMP:  45;

TOMAHAWK       CLEAR     37  37  97 CALM      30.18S
6HR MIN TEMP:  37; 6HR MAX TEMP:  41;

MEDFORD        CLEAR     43  43 100 CALM      30.17F FOG
6HR MIN TEMP:  41; 6HR MAX TEMP:  49;

MERRILL        PTCLDY    39  39 100 CALM      30.19S
6HR MIN TEMP:  39; 6HR MAX TEMP:  45;

$$

WIZ029-030-035-036-043>047-271300-
CENTRAL WISCONSIN

CITY           SKY/WX    TMP DP  RH WIND       PRES   REMARKS
WAUSAU         CLEAR     48  46  93 E3        30.17R
6HR MIN TEMP:  47; 6HR MAX TEMP:  54;

MOSINEE        CLEAR     46  46 100 CALM      30.19R
MARSHFIELD     CLEAR     49  45  86 E5        30.17F
6HR MIN TEMP:  48; 6HR MAX TEMP:  56;

STEVENS POINT  PTCLDY    43  42  97 CALM      30.19F
6HR MIN TEMP:  42; 6HR MAX TEMP:  48;

WAUPACA        CLEAR     49  48  95 CALM      30.19R
6HR MIN TEMP:  48; 6HR MAX TEMP:  54;

WAUTOMA        FAIR      46  46 100 CALM      30.20R
6HR MIN TEMP:  44; 6HR MAX TEMP:  49;

WISC RAPIDS    CLEAR     47  45  93 CALM      30.19F
6HR MIN TEMP:  46; 6HR MAX TEMP:  52;

CAMP DOUGLAS   CLEAR     46  46 100 E3        30.15F
$$

WIZ011>013-019>022-031-037>040-048>050-271300-
NORTHEAST WISCONSIN

CITY           SKY/WX    TMP DP  RH WIND       PRES   REMARKS
ANTIGO         CLEAR     44  43  98 CALM      30.19S
SHAWANO        FOG       54  52  95 CALM      30.20R VSB 1/2
6HR MIN TEMP:  52; 6HR MAX TEMP:  56;

OCONTO         CLOUDY    48  48 100 NW3       30.19R VSB 1/4
6HR MIN TEMP:  47; 6HR MAX TEMP:  51;

STURGEON BAY   CLEAR     48  45  87 CALM      30.20R
6HR MIN TEMP:  48; 6HR MAX TEMP:  52;

GREEN BAY      FOG       50  49  96 CALM      30.19R VSB<1/4
6HR MIN TEMP:  47; 6HR MAX TEMP:  53;

MANITOWOC      CLEAR     47  46  97 MISG      30.20R
6HR MIN TEMP:  47; 6HR MAX TEMP:  53;

APPLETON       FOG       52  52 100 W8        30.18R VSB 1/2
CLINTONVILLE   FOG       52  50  93 N3        30.20R VSB<1/4
OSHKOSH        CLEAR     56  52  86 W5        30.19R
6HR MIN TEMP:  52; 6HR MAX TEMP:  56;

$$

WIZ032>034-041-042-053>061-271300-
SOUTHWEST WISCONSIN

CITY           SKY/WX    TMP DP  RH WIND       PRES   REMARKS
LA CROSSE      FOG       54  53  97 SE6       30.14S VSB 3/4
6HR MIN TEMP:  51; 6HR MAX TEMP:  56;

SPARTA         MOCLDY    44  43  98 CALM      30.16F
6HR MIN TEMP:  43; 6HR MAX TEMP:  47;

VIROQUA        CLEAR     53  53 100 SE6       30.16S
6HR MIN TEMP:  52; 6HR MAX TEMP:  56;

BOSCOBEL       CLOUDY    51  50  96 CALM      30.17F FOG
6HR MIN TEMP:  48; 6HR MAX TEMP:  53;

PRAIRIE DU CHI PTCLDY    53  51  94 CALM      30.15S
6HR MIN TEMP:  51; 6HR MAX TEMP:  55;

PLATTEVILLE    CLEAR     54  53  97 S6        30.18S
6HR MIN TEMP:  53; 6HR MAX TEMP:  58;

$$

WIZ056-057-062-063-064-067-068-271300-
SOUTH CENTRAL WISCONSIN

CITY           SKY/WX    TMP DP  RH WIND       PRES   REMARKS
REEDSBURG      MOCLDY    47  47  99 CALM      30.18F FOG
6HR MIN TEMP:  45; 6HR MAX TEMP:  52;

BARABOO/DELLS  CLEAR     52  50  93 CALM      30.18F
6HR MIN TEMP:  50; 6HR MAX TEMP:  55;

LONE ROCK      CLEAR     49  47  93 CALM      30.18F
6HR MIN TEMP:  47; 6HR MAX TEMP:  52;

MINERAL POINT  CLEAR     54  52  94 SE5       30.18F FOG
MADISON        PTCLDY    51  50  96 NE3       30.20R
6HR MIN TEMP:  50; 6HR MAX TEMP:  58;

MIDDLETON      CLEAR     56  53  86 CALM      30.20S
6HR MIN TEMP:  51; 6HR MAX TEMP:  59;

WATERTOWN      CLEAR     46  46 100 CALM      30.21R
6HR MIN TEMP:  45; 6HR MAX TEMP:  52;

MONROE         CLEAR     54  52  94 SW8       30.19F
JANESVILLE     PTCLDY    52  48  87 CALM      30.20R FOG
$$

WIZ051-052-058>065-066-070>072-271300-
SOUTHEAST WISCONSIN

CITY           SKY/WX    TMP DP  RH WIND       PRES   REMARKS
MILWAUKEE      MOCLDY    58  51  78 W8        30.21R
6HR MIN TEMP:  53; 6HR MAX TEMP:  58;

WAUKESHA       PTCLDY    50  48  93 SW3       30.22R
MILWAUKEE/TIMM CLEAR     52  48  87 SW3       30.22R
RACINE         PTCLDY    54  50  86 W3        30.22R
6HR MIN TEMP:  50; 6HR MAX TEMP:  54;

BURLINGTON     CLEAR     45  44  99 CALM      30.22R
6HR MIN TEMP:  42; 6HR MAX TEMP:  46;

KENOSHA        CLEAR     50  50 100 CALM      30.22R
6HR MIN TEMP:  46; 6HR MAX TEMP:  50;

FOND DU LAC    CLEAR     53  51  93 CALM      30.21R
6HR MIN TEMP:  53; 6HR MAX TEMP:  55;

SHEBOYGAN      MOCLDY    55  53  93 W6        30.19R
6HR MIN TEMP:  48; 6HR MAX TEMP:  55;

WEST BEND      CLOUDY    55  52  88 CALM      30.21R
JUNEAU         CLEAR     48  48  99 CALM      30.22R FOG
6HR MIN TEMP:  47; 6HR MAX TEMP:  53;

$$

LSZ147-162-271300-
LAKE SUPERIOR

STATION/POSITION TIME  TEMP    WIND        PRES    WAVE
                       AIR SEA DIR/SP/G            HT/PER
                 (UTC) (F)     (DEG/KT/KT) (MB)    (FT/S)
W MID LAKE BUOY  1150   55 54  170/  4/  6 1020.8R   0
DEVILS ISLAND    1200   55     220/  9/  9 1021.3R
PORT WING        1100   46     170/  3/  4 1021.0
SAXON HARBOR     1140   47     180/  5/  8 1020.7R
$$

LMZ867-665-643>646-271300-
LAKE MICHIGAN

STATION/POSITION TIME  TEMP    WIND        PRES    WAVE
                       AIR SEA DIR/SP/G            HT/PER
                 (UTC) (F)     (DEG/KT/KT) (MB)    (FT/S)
CHAMBERS ISLAND  1100   49        CALM     1021.3R



USA.gov is the U.S. government's official web portal to all federal, state and local government web resources and services.